[[{"header":{"parameterUnit":"m.s-1","parameterCategory":1,"la1":30.2991,"la2":30.254,"lo1":-89.0895,"lo2":-89.0444,"dy":0.0017,"dx":0.0017,"nx":28,"ny":28,"refTime":"2024-06-18T21:00:00:Z","depth":0,"parameterNumber":2,"parameterNumberName":"U-component_of_WINDS"},"data":[0,0,0,0,0,0,0,0,0,0,0,0,0,0,0,0,0,0,0,0,0,0,0,0,0,0,0,0,0,0,0,0,0,0,0,0,0,0,0,0,0,0,0,0,0,0,0,0,0,0,0,0,0,0,0,0,0,0,-7.2334,-7.2334,0,-7.2286,-7.2286,-7.2285,-7.2087,-7.2082,-7.2078,-7.2073,-7.2028,-7.2031,-7.2034,0,0,0,0,0,0,0,0,0,0,0,0,0,-7.2259,-7.2261,-7.2334,-7.2334,-7.2333,-7.2286,-7.2286,-7.2285,-7.2088,-7.2082,-7.2076,-7.2071,-7.2027,-7.203,-7.2034,0,0,0,0,0,0,0,0,0,0,0,0,0,-7.226,-7.2262,-7.2335,-7.2229,-7.2219,-7.2286,-7.2286,-7.2285,-7.2089,-7.2082,-7.2075,-7.2069,-7.2026,-7.203,-7.2035,-7.2201,0,0,-7.2049,-7.2051,0,0,0,0,0,0,0,0,-7.226,-7.2263,-7.2245,-7.2236,-7.2225,-7.2185,-7.2242,-7.2257,-7.2091,-7.2138,-7.2073,-7.2065,-7.2086,-7.2085,-7.2091,-7.2199,-7.2197,-7.2049,-7.2052,-7.2054,-7.2055,0,0,0,0,0,0,0,-7.226,-7.2264,-7.2315,-7.2245,-7.2233,-7.2185,-7.2178,-7.2244,-7.2152,-7.2134,-7.2119,-7.2116,-7.2079,-7.2088,-7.2089,-7.2196,-7.2049,-7.2053,-7.2056,-7.2058,-7.2437,-7.2444,0,0,0,0,0,0,-7.2274,-7.2265,-7.2317,-7.2314,-7.2226,-7.2192,-7.2184,-7.2205,-7.215,-7.2135,-7.2122,-7.2107,-7.2083,-7.2084,-7.2087,-7.2275,-7.2054,-7.2058,-7.2061,-7.243,-7.2438,-7.2446,0,0,0,0,0,0,-7.2274,-7.2281,-7.2319,-7.2285,-7.2286,-7.2201,-7.2227,-7.2208,-7.2215,-7.2141,-7.2124,-7.2147,-7.2078,-7.208,-7.2173,-7.2271,-7.206,-7.2065,-7.2421,-7.2432,-7.2442,-7.2656,0,0,0,0,0,0,-7.2272,-7.2282,-7.2343,-7.2288,-7.2289,-7.2406,-7.2233,-7.2212,-7.2224,-7.2204,-7.216,-7.2147,-7.2072,-7.2168,-7.2178,-7.2274,-7.2068,-7.2412,-7.2426,-7.2439,-7.264,-7.2673,-7.2702,0,0,0,0,0,-7.227,-7.2407,-7.2347,-7.2355,-7.2364,-7.2412,-7.2412,-7.2323,-7.2233,-7.2294,-7.2246,-7.2148,-7.226,-7.2179,-7.2189,-7.2288,-7.2405,-7.2422,-7.2438,-7.2626,-7.2667,-7.2701,0,0,0,0,0,0,-7.2477,-7.2398,-7.2331,-7.2453,-7.2441,-7.2378,-7.2452,-7.2369,-7.2383,-7.2364,-7.2254,-7.2246,-7.2355,-7.2331,-7.2242,-7.2445,-7.2316,-7.2335,-7.2456,-7.2494,-7.2524,-7.2526,-7.2072,0,0,0,0,0,-7.2537,-7.2581,-7.251,-7.2625,-7.2622,-7.254,-7.2557,-7.2489,-7.2472,-7.2466,-7.2425,-7.2414,-7.2445,-7.2469,-7.2495,-7.2638,-7.2624,-7.271,-7.2741,-7.2767,-7.2784,-7.2855,-7.2892,-7.25,-7.25,-7.25,0,0,-7.266,-7.2623,-7.2658,-7.2666,-7.2648,-7.2696,-7.2536,-7.2595,-7.263,-7.2476,-7.2559,-7.253,-7.251,-7.2628,-7.2678,-7.2611,-7.289,-7.2788,-7.2809,-7.2811,-7.2876,-7.2913,-7.2946,-7.2511,-7.2509,-7.2508,0,0,-7.291,-7.2887,-7.2978,-7.2964,-7.2939,-7.2883,-7.2906,-7.2856,-7.283,-7.2913,-7.2797,-7.2839,-7.2897,-7.2887,-7.2889,-7.3137,-7.3046,-7.3149,-7.3308,-7.3379,-7.341,-7.3437,-7.3522,-7.3555,-7.3167,-7.3167,-7.3168,0,-7.3067,-7.3134,-7.3037,-7.3102,-7.3109,-7.2971,-7.3063,-7.3055,-7.3041,-7.3049,-7.2974,-7.3044,-7.3021,-7.3133,-7.3194,-7.3202,-7.3223,-7.3151,-7.3413,-7.3439,-7.3463,-7.3543,-7.3576,-7.318,-7.3178,-7.3177,-7.3176,0,-7.3327,-7.3376,-7.3454,-7.3441,-7.3457,-7.3536,-7.3452,-7.348,-7.3413,-7.3365,-7.3451,-7.3419,-7.3435,-7.3458,-7.3393,-7.3562,-7.3521,-7.3433,-7.3299,-7.3514,-7.3587,-7.3617,-7.3197,-7.3193,-7.3189,-7.3186,0,0,-7.3702,-7.3635,-7.3664,-7.3656,-7.3619,-7.3655,-7.373,-7.3743,-7.3768,-7.3765,-7.3822,-7.3876,-7.3793,-7.3796,-7.373,-7.3793,-7.3988,-7.3696,-7.3694,-7.3748,-7.4169,-7.4233,-7.427,-7.393,-7.3935,-7.394,-7.417,0,-7.3937,-7.4055,-7.3971,-7.4104,-7.4147,-7.4018,-7.4082,-7.4067,-7.4026,-7.4058,-7.4013,-7.405,-7.394,-7.3941,-7.3998,-7.3952,-7.407,-7.3935,-7.3981,-7.3984,-7.3986,-7.4309,-7.4377,-7.4595,-7.4198,-7.4203,-7.4207,0,-7.4225,-7.4231,-7.4369,-7.4321,-7.4336,-7.4395,-7.44,-7.4433,-7.4414,-7.4379,-7.4384,-7.4301,-7.437,-7.4244,-7.4337,-7.4247,-7.4262,-7.4243,-7.425,-7.4247,-7.4105,-7.4312,-7.4663,-7.4695,-7.4251,-7.4248,-7.4245,0,-7.448,-7.4524,-7.461,-7.4608,-7.4556,-7.46,-7.4581,-7.4555,-7.4569,-7.4575,-7.4582,-7.4599,-7.4607,-7.4621,-7.4545,-7.446,-7.4649,-7.4516,-7.4621,-7.4623,-7.4663,-7.466,-7.5017,-7.468,-7.468,-7.4679,-7.4678,0,-7.4749,-7.4837,-7.4724,-7.4777,-7.4873,-7.4776,-7.4874,-7.4841,-7.482,-7.4865,-7.4757,-7.4802,-7.47,-7.4736,-7.4678,-7.4763,-7.4769,-7.4742,-7.4725,-7.4749,-7.4753,-7.4754,-7.4736,-7.4688,-7.4686,-7.4684,-7.4683,0,-7.5048,-7.4976,-7.5061,-7.5005,-7.4993,-7.5066,-7.5018,-7.5066,-7.5018,-7.5077,-7.5085,-7.5011,-7.5046,-7.4973,-7.5,-7.4961,-7.5081,-7.5042,-7.5086,-7.5073,-7.5181,-7.517,-7.5548,-7.5592,-7.5231,-7.5235,-7.5238,0,-7.5221,-7.5286,-7.5236,-7.5258,-7.5244,-7.5281,-7.5293,-7.5203,-7.5221,-7.5204,-7.5254,-7.528,-7.5296,-7.536,-7.5309,-7.5329,-7.5287,-7.5419,-7.5289,-7.5312,-7.5285,-7.528,-7.5285,-7.5444,-7.5448,-7.5452,-7.5455,0,-7.5536,-7.5497,-7.5519,-7.5529,-7.5547,-7.5552,-7.5548,-7.5573,-7.5476,-7.5502,-7.5536,-7.5549,-7.5576,-7.5603,-7.5611,-7.5592,-7.5508,-7.5497,-7.5521,-7.5545,-7.5566,-7.5552,-7.5154,-7.5487,-7.5484,-7.5481,-7.548,-7.5478,-7.5775,-7.5825,-7.5797,-7.5826,-7.5813,-7.5813,-7.5853,-7.5811,-7.5837,-7.5849,-7.5796,-7.5842,-7.5822,-7.5824,-7.5814,-7.585,-7.5791,-7.5828,-7.5837,-7.5846,-7.5862,-7.5565,-7.5852,-7.5851,-7.585,-7.5849,-7.5848,0,-7.6081,-7.6057,-7.6084,-7.6081,-7.6103,-7.6022,-7.6014,-7.6038,-7.6079,-7.6067,-7.6085,-7.6125,-7.6151,-7.6103,-7.6122,-7.616,-7.6122,-7.6168,-7.6162,-7.6159,-7.5915,-7.589,-7.6198,-7.6198,-7.6198,-7.6198,-7.6198,-7.6198,-7.6242,-7.6322,-7.6281,-7.6354,-7.633,-7.6372,-7.6375,-7.6374,-7.6363,-7.6411,-7.6432,-7.64,-7.6374,-7.639,-7.6411,-7.6396,-7.6407,-7.6466,-7.6438,-7.621,-7.6176,-7.6143,-7.6119,-7.647,-7.647,-7.6677,-7.6679,-7.6681]},{"header":{"parameterUnit":"m.s-1","parameterCategory":1,"la1":30.2991,"la2":30.254,"lo1":-89.0895,"lo2":-89.0444,"dy":0.0017,"dx":0.0017,"nx":28,"ny":28,"refTime":"2024-06-18T21:00:00:Z","depth":0,"parameterNumber":3,"parameterNumberName":"V-component_of_WINDS"},"data":[0,0,0,0,0,0,0,0,0,0,0,0,0,0,0,0,0,0,0,0,0,0,0,0,0,0,0,0,0,0,0,0,0,0,0,0,0,0,0,0,0,0,0,0,0,0,0,0,0,0,0,0,0,0,0,0,0,0,1.3646,1.3646,0,1.3675,1.3676,1.3676,1.3648,1.3647,1.3645,1.3644,1.3674,1.3676,1.3678,0,0,0,0,0,0,0,0,0,0,0,0,0,1.3565,1.3567,1.3646,1.3646,1.3646,1.3675,1.3676,1.3676,1.3648,1.3646,1.3645,1.3644,1.3674,1.3676,1.3678,0,0,0,0,0,0,0,0,0,0,0,0,0,1.3598,1.3567,1.3646,1.3636,1.3635,1.3675,1.3676,1.3676,1.3648,1.3646,1.3645,1.3643,1.3673,1.3676,1.3678,1.3729,0,0,1.3687,1.3688,0,0,0,0,0,0,0,0,1.3596,1.3601,1.3637,1.3637,1.3636,1.3656,1.3658,1.3694,1.3649,1.3643,1.3644,1.3642,1.3669,1.3672,1.3682,1.3731,1.3732,1.3687,1.3689,1.369,1.3691,0,0,0,0,0,0,0,1.3594,1.36,1.3657,1.3637,1.3637,1.363,1.3633,1.3665,1.3665,1.3644,1.3642,1.3645,1.3669,1.3679,1.3682,1.3732,1.3687,1.3689,1.3691,1.3692,1.3827,1.3829,0,0,0,0,0,0,1.3593,1.3598,1.3656,1.3658,1.3611,1.3633,1.3636,1.3651,1.3665,1.3666,1.3647,1.3644,1.3675,1.3679,1.3683,1.3745,1.369,1.3692,1.3694,1.3825,1.3828,1.383,0,0,0,0,0,0,1.3591,1.3598,1.3655,1.3628,1.3634,1.3636,1.3654,1.3653,1.3663,1.3668,1.3668,1.3657,1.3674,1.3679,1.3719,1.3746,1.3694,1.3696,1.3823,1.3826,1.3829,1.3869,0,0,0,0,0,0,1.3589,1.3598,1.3617,1.3628,1.3636,1.369,1.3655,1.3655,1.3668,1.3664,1.3677,1.3678,1.3673,1.3715,1.3721,1.3749,1.3698,1.3821,1.3825,1.3828,1.3865,1.3873,1.388,0,0,0,0,0,1.3586,1.3626,1.3618,1.3625,1.366,1.3692,1.3696,1.369,1.367,1.369,1.3693,1.3677,1.3742,1.3719,1.3726,1.3755,1.3819,1.3823,1.3828,1.3862,1.3872,1.3879,0,0,0,0,0,0,1.3617,1.3628,1.3618,1.3663,1.3677,1.3687,1.3711,1.37,1.3719,1.3715,1.3707,1.371,1.3752,1.3757,1.3731,1.3806,1.3777,1.3783,1.3801,1.381,1.3817,1.3815,1.3701,0,0,0,0,0,1.363,1.3654,1.3662,1.3701,1.3709,1.3709,1.3722,1.3717,1.373,1.3736,1.3742,1.3756,1.3779,1.3795,1.3817,1.3866,1.3869,1.389,1.3897,1.3903,1.3908,1.3936,1.3946,1.3844,1.3844,1.3844,0,0,1.3655,1.3664,1.368,1.3708,1.3718,1.3744,1.3714,1.3742,1.3762,1.374,1.3778,1.3783,1.3798,1.3844,1.3864,1.3849,1.3937,1.3908,1.3913,1.3915,1.3942,1.3951,1.396,1.3847,1.3847,1.3846,0,0,1.3714,1.3723,1.3758,1.3769,1.3784,1.3785,1.3793,1.3805,1.3808,1.3846,1.3831,1.3854,1.3895,1.3907,1.3918,1.3985,1.3972,1.3992,1.4029,1.4057,1.4065,1.4072,1.4097,1.4106,1.3998,1.3998,1.3998,0,1.3744,1.3783,1.3777,1.3807,1.3821,1.3803,1.3839,1.3849,1.3871,1.3881,1.3865,1.3917,1.3925,1.3974,1.3991,1.4,1.401,1.3991,1.4065,1.4072,1.4078,1.4102,1.4111,1.4,1.4,1.4,1.3999,0,1.3819,1.3847,1.3873,1.3896,1.3912,1.3945,1.3944,1.3961,1.3955,1.3958,1.3998,1.4008,1.4032,1.4043,1.4037,1.4092,1.4083,1.4066,1.4036,1.409,1.4113,1.4122,1.4004,1.4003,1.4002,1.4001,0,0,1.3898,1.3918,1.3928,1.3939,1.3956,1.3978,1.401,1.4035,1.4051,1.4067,1.4095,1.4131,1.4116,1.4129,1.4124,1.4148,1.4202,1.4128,1.4129,1.4142,1.4265,1.4278,1.4289,1.4194,1.4196,1.4197,1.4264,0,1.3959,1.4016,1.4012,1.4066,1.4093,1.4077,1.4106,1.412,1.4124,1.4147,1.4151,1.4177,1.4154,1.4162,1.4186,1.4191,1.4227,1.4186,1.422,1.4222,1.4217,1.43,1.4313,1.4376,1.4273,1.4274,1.4275,0,1.4038,1.4058,1.4115,1.413,1.4141,1.4167,1.419,1.4212,1.4228,1.4229,1.4245,1.4237,1.4271,1.4241,1.4288,1.4261,1.4275,1.428,1.4282,1.4285,1.4252,1.4306,1.4396,1.4406,1.4289,1.4287,1.4286,0,1.4091,1.4132,1.4172,1.4182,1.42,1.4219,1.4227,1.4242,1.4258,1.4278,1.4289,1.4313,1.4326,1.4345,1.4344,1.4322,1.4392,1.4362,1.4395,1.4395,1.441,1.4409,1.4504,1.4418,1.4418,1.4418,1.4418,0,1.416,1.4195,1.4197,1.4221,1.4261,1.4257,1.4297,1.4303,1.4317,1.4343,1.4331,1.4356,1.4352,1.4377,1.4377,1.4417,1.4423,1.4425,1.4424,1.4426,1.4426,1.4435,1.4431,1.4421,1.442,1.442,1.4419,0,1.4226,1.4228,1.4271,1.4285,1.429,1.4319,1.4331,1.4355,1.4358,1.4391,1.4399,1.4404,1.4433,1.4434,1.4467,1.4467,1.4516,1.451,1.4511,1.451,1.4543,1.454,1.4647,1.4662,1.4566,1.4567,1.4568,0,1.427,1.4297,1.4315,1.4332,1.4342,1.4369,1.4386,1.4383,1.4401,1.4423,1.4444,1.4472,1.4495,1.4542,1.4549,1.4575,1.457,1.4606,1.4574,1.4575,1.4572,1.457,1.4573,1.4612,1.4613,1.4614,1.4615,0,1.4348,1.4348,1.4372,1.4398,1.4418,1.4438,1.4456,1.447,1.447,1.4491,1.4521,1.4539,1.4573,1.4602,1.4628,1.4637,1.4626,1.4625,1.4634,1.4636,1.4636,1.4638,1.4529,1.4622,1.4622,1.4621,1.4621,1.462,1.4405,1.4429,1.4446,1.4474,1.4488,1.4506,1.4529,1.4536,1.4561,1.459,1.4587,1.4621,1.4638,1.4671,1.4683,1.471,1.4697,1.471,1.4713,1.4717,1.4721,1.4632,1.4714,1.4714,1.4714,1.4714,1.4713,0,1.4484,1.4494,1.452,1.4547,1.4569,1.4558,1.4578,1.4597,1.4628,1.4645,1.4668,1.4703,1.4731,1.4741,1.4769,1.4788,1.4784,1.4796,1.4794,1.4797,1.473,1.472,1.4799,1.4799,1.4799,1.4799,1.4799,1.4799,1.4527,1.4568,1.4571,1.4619,1.4629,1.4663,1.4676,1.4692,1.4706,1.4747,1.477,1.4777,1.4791,1.482,1.4846,1.4848,1.4859,1.4873,1.4873,1.481,1.4801,1.4793,1.4784,1.4875,1.4875,1.4938,1.4939,1.4939]}]]